Location: Mentone
(34.5413°N, 85.5351°W)
Time: 01:17:07
(UTC-05:00)

S-56A Canister/Altair - Visible Passes

Search period start: 25 October 2014 00:00
Search period end: 03 November 2014 23:00
Orbit: 633 x 2503 km, 38.9° (Epoch: 20 October)

Date Brightness Start Highest point End Pass type
(mag) Time Alt. Az. Time Alt. Az. Time Alt. Az.
25 Oct 10.1 18:39:57 10° SW 18:54:45 68° SSE 19:06:21 17° ENE visible
25 Oct 9.6 20:46:34 10° W 21:01:51 79° NNW 21:03:49 69° NE visible
25 Oct 10.8 22:55:06 10° WNW 23:01:16 30° WNW 23:01:16 30° WNW visible
26 Oct 10.2 18:07:14 10° SW 18:21:39 63° SSE 18:35:35 10° ENE visible
26 Oct 9.8 20:13:18 10° WSW 20:28:42 82° NNW 20:33:16 52° ENE visible
26 Oct 10.4 22:21:40 10° W 22:30:43 43° WNW 22:30:43 43° WNW visible
27 Oct 9.9 19:40:08 10° WSW 19:55:30 85° NNW 20:02:40 37° ENE visible
27 Oct 10.0 21:48:15 10° W 22:00:07 59° WNW 22:00:07 59° WNW visible
27 Oct 11.5 23:56:31 10° WNW 23:57:34 13° WNW 23:57:34 13° WNW visible
28 Oct 10.0 19:07:05 10° WSW 19:22:16 88° NNW 19:32:03 26° ENE visible
28 Oct 9.7 21:14:52 10° W 21:29:30 73° NNW 21:29:30 73° NNW visible
28 Oct 11.2 23:23:08 10° WNW 23:26:57 22° WNW 23:26:57 22° WNW visible
29 Oct 10.0 18:34:09 10° WSW 18:49:02 88° SSE 19:01:25 17° ENE visible
29 Oct 9.7 20:41:32 10° W 20:56:52 74° N 20:58:51 67° NE visible
29 Oct 10.8 22:49:45 10° WNW 22:56:18 32° WNW 22:56:18 32° WNW visible
30 Oct 10.1 18:01:19 10° WSW 18:15:48 84° SSE 18:30:31 10° ENE visible
30 Oct 9.8 20:08:17 10° W 20:23:38 74° N 20:28:12 51° ENE visible
30 Oct 10.4 22:16:23 10° WNW 22:25:39 45° WNW 22:25:39 45° WNW visible
31 Oct 10.0 19:35:07 10° W 19:50:21 75° N 19:57:33 37° ENE visible
31 Oct 10.0 21:43:03 10° WNW 21:54:59 62° WNW 21:54:59 62° WNW visible
31 Oct 11.5 23:51:02 10° WNW 23:52:26 14° WNW 23:52:26 14° WNW visible
01 Nov 10.0 19:02:03 10° W 19:17:02 77° N 19:26:53 26° ENE visible
01 Nov 9.7 21:09:45 10° WNW 21:24:20 78° NNW 21:24:20 78° NNW visible
01 Nov 11.2 23:17:38 10° WNW 23:21:47 22° WNW 23:21:47 22° WNW visible
02 Nov 10.1 17:29:05 10° W 17:43:43 78° N 17:56:15 17° ENE visible
02 Nov 9.6 19:36:31 10° WNW 19:51:55 78° N 19:53:42 71° ENE visible
02 Nov 10.8 21:44:15 10° WNW 21:51:09 33° WNW 21:51:09 33° WNW visible
03 Nov 10.1 16:56:13 10° WSW 17:10:24 81° NNW 17:25:25 10° ENE visible
03 Nov 9.8 19:03:20 10° WNW 19:18:39 77° N 19:23:05 53° E visible
03 Nov 10.4 21:10:56 10° WNW 21:20:32 46° W 21:20:32 46° W visible
